FW4487 Weather Reports


Display with metric or nautical units.
time (UTC)temp
F
wind
direction
speed
MPH
gust
MPH
rain 1hr
in
rain 24hr
in
rain mn
in
humidity
%
barometer
mb
20260902203203 67 136 0.0 0.0 0.00 0.00 0.00 70 1019.4
20260902200703 68 136 0.0 1.0 0.00 0.00 0.00 68 1019.3
20260902200203 68 136 0.0 1.0 0.00 0.00 0.00 67 1019.2
20260902193703 69 136 0.0 1.0 0.00 0.00 0.00 69 1019.2
20260902193203 69 136 0.0 1.0 0.00 0.00 0.00 70 1019.1
20260902190703 71 136 0.0 0.0 0.00 0.00 0.00 74 1019.2
20260902190204 71 136 0.0 0.0 0.00 0.00 0.00 75 1019.2
20260902183704 73 78 0.0 0.0 0.00 0.00 0.00 73 1019.3
20260902183203 73 78 0.0 0.0 0.00 0.00 0.00 75 1019.3
20260902180704 74 78 0.0 0.0 0.00 0.00 0.00 71 1019.3
20260902173703 76 78 0.0 0.0 0.00 0.00 0.00 71 1019.4
20260902173204 76 77 0.0 0.0 0.00 0.00 0.00 69 1019.4
20260902170703 78 87 0.0 0.0 0.00 0.00 0.00 63 1019.5
20260902170206 78 201 0.0 1.0 0.00 0.00 0.00 62 1019.5
20260902163704 77 117 0.0 0.0 0.00 0.00 0.00 62 1019.6
20260902163204 77 216 0.0 1.0 0.00 0.00 0.00 63 1019.6
20260902160703 77 264 1.0 8.0 0.00 0.00 0.00 62 1019.9
20260902160204 77 224 1.0 8.0 0.00 0.00 0.00 61 1019.8
20260902153704 78 280 0.0 0.0 0.00 0.00 0.00 63 1020.1
20260902153204 78 280 0.0 0.0 0.00 0.00 0.00 62 1020.2
20260902150704 78 251 0.0 8.0 0.00 0.00 0.00 66 1020.3
20260902143704 78 236 0.0 8.0 0.00 0.00 0.00 64 1020.4
20260902143204 78 116 1.0 8.0 0.00 0.00 0.00 63 1020.3
20260902140201 77 220 1.0 5.0 0.00 0.00 0.00 66 1020.5
20260902133701 78 187 0.0 8.0 0.00 0.00 0.00 67 1020.5
20260902133201 77 235 1.0 8.0 0.00 0.00 0.00 63 1020.5
20260902130701 81 250 0.0 1.0 0.00 0.00 0.00 62 1020.5
20260902123702 80 92 0.0 3.0 0.00 0.00 0.00 61 1020.6
20260902120701 80 148 1.0 6.0 0.00 0.00 0.00 56 1020.8
20260902120201 80 141 0.0 6.0 0.00 0.00 0.00 57 1020.8
20260902113701 80 126 1.0 8.0 0.00 0.00 0.00 57 1021.0
20260902113201 80 103 2.0 8.0 0.00 0.00 0.00 56 1021.0
20260902110701 81 87 1.0 8.0 0.00 0.00 0.00 56 1021.1
20260902110201 80 190 0.0 3.0 0.00 0.00 0.00 58 1021.0
20260902103701 80 243 0.0 7.0 0.00 0.00 0.00 56 1020.9
20260902103201 80 215 1.0 7.0 0.00 0.00 0.00 55 1020.9
20260902100702 79 116 0.0 3.0 0.00 0.00 0.00 59 1020.8
20260902100202 79 118 0.0 3.0 0.00 0.00 0.00 56 1020.8
20260902093701 77 136 0.0 3.0 0.00 0.00 0.00 56 1020.6
20260902093201 77 197 1.0 3.0 0.00 0.00 0.00 57 1020.6
20260902090701 75 217 0.0 1.0 0.00 0.00 0.00 64 1020.6
20260902090201 75 217 0.0 1.0 0.00 0.00 0.00 63 1020.6
20260902083701 71 66 0.0 3.0 0.00 0.00 0.00 70 1020.7
20260902083203 71 83 1.0 3.0 0.00 0.00 0.00 70 1020.7
20260902080702 67 280 0.0 2.0 0.00 0.00 0.00 77 1020.6
20260902073702 65 136 0.0 0.0 0.00 0.00 0.00 82 1020.3
20260902073201 65 136 0.0 0.0 0.00 0.00 0.00 81 1020.1
20260902070702 64 136 0.0 0.0 0.00 0.00 0.00 81 1020.0
20260902070201 64 136 0.0 0.0 0.00 0.00 0.00 81 1020.1
20260902063702 63 136 0.0 0.0 0.00 0.00 0.00 81 1019.8
20260902063201 64 136 0.0 0.0 0.00 0.00 0.00 80 1019.8
20260902060702 64 136 0.0 0.0 0.00 0.00 0.00 78 1019.7
20260902060202 64 136 0.0 9.0 0.00 0.00 0.00 77 1019.7
20260902053702 64 136 0.0 1.0 0.00 0.00 0.00 78 1019.6
20260902053201 64 136 0.0 3.0 0.00 0.00 0.00 77 1019.5
20260902050702 64 136 0.0 0.0 0.00 0.00 0.00 79 1019.4
20260902050202 64 136 0.0 0.0 0.00 0.00 0.00 79 1019.3
20260902043702 63 136 0.0 0.0 0.00 0.00 0.00 80 1019.6
20260902043202 63 136 0.0 0.0 0.00 0.00 0.00 80 1019.6
20260902040704 64 136 0.0 0.0 0.00 0.00 0.00 80 1019.7
20260902033702 63 136 0.0 8.0 0.00 0.00 0.00 81 1019.8
20260902030702 64 136 0.0 0.0 0.00 0.00 0.00 81 1020.3
20260902030202 64 136 0.0 0.0 0.00 0.00 0.00 81 1020.4
20260902023703 64 136 0.0 0.0 0.00 0.00 0.00 79 1020.7
20260902023202 64 136 0.0 0.0 0.00 0.00 0.00 78 1020.7
20260902020703 64 136 2.0 12.0 0.00 0.00 0.00 77 1020.8
20260902020203 64 136 0.0 6.0 0.00 0.00 0.00 78 1020.8
20260902013702 64 136 0.0 6.0 0.00 0.00 0.00 78 1021.1
20260902013202 64 136 1.0 6.0 0.00 0.00 0.00 77 1021.2
20260902010703 64 136 0.0 0.0 0.00 0.00 0.00 76 1021.3
20260902010203 64 136 0.0 0.0 0.00 0.00 0.00 75 1021.3
20260902003703 64 136 0.0 0.0 0.00 0.00 0.00 76 1021.3
20260902003202 64 136 0.0 0.0 0.00 0.00 0.00 76 1021.2
20260902000204 65 136 0.0 0.0 0.00 0.00 0.00 78 1021.5
20260901233203 64 136 2.0 12.0 0.00 0.00 0.00 80 1021.5
20260901230703 64 136 0.0 1.0 0.00 0.00 0.00 80 1022.1
20260901230203 64 136 0.0 0.0 0.00 0.00 0.00 80 1022.0
20260901223703 64 136 0.0 3.0 0.00 0.00 0.00 81 1022.3
20260901223203 64 136 1.0 3.0 0.00 0.00 0.00 81 1022.3
20260901220703 64 136 0.0 1.0 0.00 0.00 0.00 77 1022.2
20260901213703 65 136 0.0 0.0 0.00 0.00 0.00 87 1022.1
20260901213203 65 136 0.0 0.0 0.00 0.00 0.00 88 1022.2
20260901210704 66 136 0.0 0.0 0.00 0.00 0.00 88 1021.9
20260901210203 66 136 0.0 0.0 0.00 0.00 0.00 89 1021.8
20260901203703 66 136 0.0 0.0 0.00 0.00 0.00 86 1021.4